Location: Fredericksburg
(30.2750°N, 98.8720°W)
Time: 19:03:45
(UTC-06:00)

Amateur Radio Satellites - All Passes

Search period start: 26 January 2015 18:33
Search period end: 27 January 2015 18:33
Location: Fredericksburg, 30.2750°N, 98.8720°W

Satellite Date Start Highest point End Downlink Frequencies (MHz)
Time Altitude Azimuth
STRAND 1 26 Jan 18:59:12 19:03:59 40° 98° (E) 19:08:49 437.568
JUGNU 26 Jan 19:31:45 19:36:45 28° 174° (S) 19:41:48 437.505
YUBILEINY 26 Jan 19:33:12 19:40:53 39° 89° (E) 19:48:46 435.215
SO-50 26 Jan 19:34:01 19:36:12 13° 48° (NE) 19:38:36 436.795
Cubesat XI-IV 26 Jan 19:40:32 19:42:53 12° 269° (W) 19:44:51 437.490
PRISM 26 Jan 19:44:39 19:47:57 22° 288° (WNW) 19:51:08 437.425
BRITE-PL 26 Jan 19:48:33 19:52:22 24° 70° (ENE) 19:56:32 437.365/2234.400
CANX-2 26 Jan 19:50:39 19:53:18 17° 72° (ENE) 19:56:07 2200.000
GOMX 1 26 Jan 19:59:00 20:02:38 22° 70° (ENE) 20:06:35 467.674
CUBESAT XI-V 26 Jan 20:04:26 20:08:14 24° 288° (WNW) 20:11:56 437.345
SRMSAT 26 Jan 20:06:41 20:11:17 23° 169° (S) 20:15:56 437.500
AAUSAT CUBESAT 2 26 Jan 20:13:43 20:16:19 17° 72° (ENE) 20:19:04 437.432
CUTE 1.7 + AOD 2 26 Jan 20:14:09 20:17:50 29° 74° (ENE) 20:21:35 437.475
DOVE 4 26 Jan 20:24:17 20:28:24 28° 72° (ENE) 20:32:48 437.250
HO-68 26 Jan 20:27:18 20:34:20 65° 73° (ENE) 20:41:24 435.675
CINEMA 3 26 Jan 20:33:25 20:36:46 20° 70° (ENE) 20:40:23 145.822/145.860
STRAND 1 26 Jan 20:39:20 20:42:56 19° 291° (WNW) 20:46:20 437.568
SEEDS 26 Jan 20:48:15 20:52:29 67° 77° (ENE) 20:56:43 437.485
ZACube-1 26 Jan 20:51:14 20:51:48 10° 69° (ENE) 20:52:41 437.345
DX 1 26 Jan 20:57:37 21:00:10 16° 70° (ENE) 21:02:54 434.975-435.025
FUNcube-1 26 Jan 21:02:18 21:04:40 15° 70° (ENE) 21:07:16 145.935
SO-50 26 Jan 21:12:23 21:17:17 67° 244° (WSW) 21:22:07 436.795
UWE-3 26 Jan 21:13:47 21:17:31 25° 72° (ENE) 21:21:23 435.000/436.395/437.385
COMPASS 1 26 Jan 21:19:00 21:23:11 59° 260° (W) 21:27:22 437.405
JUGNU 26 Jan 21:20:14 21:25:21 29° 184° (S) 21:30:27 437.505
CANX-2 26 Jan 21:25:13 21:29:04 30° 263° (W) 21:32:51 2200.000
BRITE-PL 26 Jan 21:26:37 21:30:45 28° 266° (W) 21:35:07 437.365/2234.400
YUBILEINY 26 Jan 21:29:51 21:37:43 36° 284° (WNW) 21:45:27 435.215
GOMX 1 26 Jan 21:36:11 21:40:33 32° 265° (W) 21:45:07 467.674
VELOX 1 26 Jan 21:38:16 21:40:52 16° 70° (ENE) 21:43:40 145.980
Oscar 11 26 Jan 21:40:30 21:44:52 86° 258° (WSW) 21:49:14 145.826/435.025
AAUSAT CUBESAT 2 26 Jan 21:48:04 21:51:47 29° 263° (W) 21:55:27 437.432
CUTE 1.7 + AOD 2 26 Jan 21:50:55 21:53:49 17° 266° (W) 21:56:34 437.475
SRMSAT 26 Jan 21:54:51 22:00:01 30° 179° (S) 22:05:11 437.500
DELFI C3 26 Jan 21:58:50 22:02:52 61° 260° (W) 22:06:55 145.870
ISS 26 Jan 22:01:24 22:04:26 36° 130° (SE) 22:07:30 145.825
DOVE 4 26 Jan 22:02:11 22:06:10 24° 267° (W) 22:10:11 437.250
CUBEBUG 2 26 Jan 22:03:08 22:07:47 71° 259° (W) 22:12:33 437.445
CINEMA 3 26 Jan 22:09:21 22:13:44 35° 263° (W) 22:18:14 145.822/145.860
UNISAT 6 26 Jan 22:11:08 22:13:21 14° 92° (E) 22:15:48 437.425
UKube-1 26 Jan 22:14:24 22:18:39 58° 259° (W) 22:22:55 .
HO-68 26 Jan 22:17:49 22:22:36 18° 267° (W) 22:26:58 435.675
ZACube-1 26 Jan 22:23:14 22:27:44 59° 260° (W) 22:32:17 437.345
QB50P1 26 Jan 22:27:04 22:28:32 12° 92° (E) 22:30:18 145.935-145.965
DX 1 26 Jan 22:32:16 22:36:11 33° 262° (W) 22:40:06 434.975-435.025
FUNcube-1 26 Jan 22:36:24 22:40:43 41° 262° (W) 22:45:03 145.935
ESTCUBE 1 26 Jan 22:37:23 22:41:21 32° 73° (ENE) 22:45:23 437.505/2401.250
POLYITAN 1 26 Jan 22:38:45 22:41:35 18° 94° (E) 22:44:33 437.675
AISAT 26 Jan 22:42:55 22:47:21 79° 259° (WSW) 22:51:49 437.250
ANTELSAT 26 Jan 22:45:20 22:49:27 38° 98° (E) 22:53:30 437.575/2403.000
HUMSAT D 26 Jan 22:48:13 22:52:27 54° 260° (W) 22:56:44 437.325/437.525
50 SAT 26 Jan 22:50:01 22:54:07 70° 259° (W) 22:58:15 437.505
UWE-3 26 Jan 22:50:13 22:54:00 24° 265° (W) 22:57:43 435.000/436.395/437.385
BUGSAT 1 26 Jan 22:52:12 22:55:11 19° 94° (E) 22:58:19 437.445
TIGRISAT 26 Jan 22:54:38 22:58:56 49° 99° (E) 23:03:08 435.000
AIST 1 26 Jan 22:57:29 23:01:26 34° 80° (E) 23:05:26
POPSAT HIP 1 26 Jan 22:59:30 23:03:19 31° 97° (E) 23:07:10 437.405
DUCHIFAT 1 26 Jan 23:03:43 23:07:39 35° 98° (E) 23:11:36 145.980
JUGNU 26 Jan 23:09:35 23:13:54 20° 193° (SSW) 23:18:10 437.505
VELOX 1 26 Jan 23:13:11 23:17:13 34° 262° (W) 23:21:13 145.980
SPROUT 26 Jan 23:26:52 23:30:15 24° 73° (ENE) 23:33:45 437.525
CUBEBUG 1 26 Jan 23:29:38 23:33:54 60° 260° (W) 23:38:13 437.445
NANOSAT C BR1 26 Jan 23:37:21 23:41:40 82° 285° (WNW) 23:45:57 145.865
ISS 26 Jan 23:38:58 23:41:04 16° 325° (NW) 23:43:08 145.825
SRMSAT 26 Jan 23:43:52 23:48:45 26° 189° (S) 23:53:36 437.500
UNISAT 6 26 Jan 23:46:17 23:50:22 36° 286° (WNW) 23:54:19 437.425
QB50P2 26 Jan 23:50:10 23:54:23 55° 284° (WNW) 23:58:34 145.880/145.840
QB50P1 27 Jan 00:00:38 00:04:41 41° 285° (WNW) 00:08:42 145.935-145.965
TISAT 1 27 Jan 00:12:31 00:16:43 89° 228° (SW) 00:21:00 437.305
POLYITAN 1 27 Jan 00:13:50 00:17:34 28° 287° (WNW) 00:21:13 437.675
ESTCUBE 1 27 Jan 00:15:25 00:18:21 16° 266° (W) 00:21:05 437.505/2401.250
ANTELSAT 27 Jan 00:23:34 00:25:58 14° 290° (WNW) 00:28:06 437.575/2403.000
BUGSAT 1 27 Jan 00:27:05 00:30:42 26° 287° (WNW) 00:34:13 437.445
TIGRISAT 27 Jan 00:33:55 00:35:17 11° 291° (WNW) 00:36:23 435.000
POPSAT HIP 1 27 Jan 00:36:14 00:39:01 16° 289° (WNW) 00:41:35 437.405
AIST 1 27 Jan 00:36:37 00:38:50 13° 271° (W) 00:40:50
DUCHIFAT 1 27 Jan 00:40:48 00:43:15 15° 290° (WNW) 00:45:31 145.980
SWISSCUBE 27 Jan 00:58:36 01:03:03 41° 74° (ENE) 01:07:32 437.505
SPROUT 27 Jan 01:02:59 01:06:19 21° 265° (W) 01:09:33 437.525
Oscar 19 27 Jan 01:08:38 01:12:18 20° 94° (E) 01:16:07 437.125/150
BEESAT 27 Jan 01:14:42 01:19:22 59° 75° (ENE) 01:24:04 436.000
ITUPSAT 1 27 Jan 01:16:52 01:21:33 61° 76° (ENE) 01:26:15 437.325
SRMSAT 27 Jan 01:34:10 01:37:25 15° 197° (SSW) 01:40:33 437.500
GONETS M04 27 Jan 01:34:33 01:42:55 53° 91° (E) 01:51:22
M-CUBED/EXP-1 PRIME 27 Jan 01:53:48 01:54:53 11° 68° (ENE) 01:56:11 437.505
Gurwin Techsat 1B 27 Jan 02:01:02 02:03:45 15° 92° (E) 02:06:47 435.225
STARS 27 Jan 02:18:20 02:22:16 32° 73° (ENE) 02:26:16 437.465
KKS-1 27 Jan 02:18:21 02:22:42 53° 75° (ENE) 02:27:05 437.445
AUBIESAT-1 27 Jan 02:26:47 02:30:15 26° 70° (ENE) 02:33:33 437.475
BEESAT 2 27 Jan 02:35:31 02:39:18 38° 113° (ESE) 02:43:11 435.950
SWISSCUBE 27 Jan 02:38:26 02:41:09 14° 267° (W) 02:43:36 437.505
O/OREOS (USA 219) 27 Jan 02:42:44 02:46:34 26° 65° (ENE) 02:50:28 437.305
Oscar 19 27 Jan 02:47:05 02:51:45 35° 287° (WNW) 02:56:20 437.125/150
BEESAT 3 27 Jan 02:52:02 02:56:05 76° 116° (ESE) 03:00:13 437.485
ITAMSAT 1 27 Jan 02:56:49 03:02:04 89° 284° (WNW) 03:07:19 435.822/435.867
CUSAT 1 27 Jan 03:22:06 03:26:12 16° 84° (E) 03:31:06 437.405
M-CUBED/EXP-1 PRIME 27 Jan 03:25:30 03:29:40 45° 255° (WSW) 03:33:30 437.505
GONETS M04 27 Jan 03:32:59 03:40:12 26° 288° (WNW) 03:47:03
AO-7 27 Jan 03:37:41 03:44:00 25° 95° (E) 03:50:38 29.400- 29.500
Gurwin Techsat 1B 27 Jan 03:38:56 03:44:04 50° 286° (WNW) 03:49:11 435.225
MOZHAYETS 4 27 Jan 03:41:16 03:43:23 14° 70° (ENE) 03:45:46
AIST 2 27 Jan 03:55:42 03:59:51 58° 299° (WNW) 04:04:04 435.215
STARS 27 Jan 03:55:58 03:58:51 16° 266° (W) 04:01:33 437.465
AUBIESAT-1 27 Jan 04:02:06 04:05:08 18° 259° (W) 04:07:53 437.475
HORYU 2 27 Jan 04:04:07 04:08:34 82° 283° (WNW) 04:12:59 437.375
BEESAT 2 27 Jan 04:15:21 04:17:44 14° 308° (NW) 04:19:59 435.950
DANDE 27 Jan 04:19:03 04:25:58 41° 90° (E) 04:33:55 436.750
O/OREOS (USA 219) 27 Jan 04:22:20 04:25:52 21° 258° (WSW) 04:29:15 437.305
RS-15 27 Jan 04:23:50 04:33:20 37° 108° (ESE) 04:43:04 29.354- 29.394
JAS-2 27 Jan 04:41:12 04:46:28 36° 99° (E) 04:52:24 435.910
CUSAT 1 27 Jan 05:00:37 05:08:18 86° 278° (W) 05:16:53 437.405
PCSat 27 Jan 05:04:06 05:09:31 86° 298° (WNW) 05:14:58 145.827
MOZHAYETS 4 27 Jan 05:15:55 05:20:19 44° 261° (W) 05:24:42
CUBESAT XI-V 27 Jan 05:26:52 05:28:46 13° 70° (ENE) 05:30:57 437.345
AO-7 27 Jan 05:29:06 05:37:13 57° 291° (WNW) 05:45:14 29.400- 29.500
YUBILEINY 27 Jan 05:53:19 05:56:22 13° 65° (ENE) 06:00:14 435.215
DANDE 27 Jan 06:02:21 06:09:29 38° 287° (WNW) 06:17:16 436.750
STRAND 1 27 Jan 06:09:44 06:14:09 32° 72° (ENE) 06:18:40 437.568
ISS 27 Jan 06:10:02 06:13:05 34° 41° (NE) 06:16:10 145.825
Cubesat XI-IV 27 Jan 06:20:31 06:25:28 38° 98° (E) 06:30:28 437.490
JAS-2 27 Jan 06:26:43 06:31:30 26° 288° (WNW) 06:36:31 435.910
PRISM 27 Jan 06:28:43 06:32:48 66° 259° (WSW) 06:36:54 437.425
RS-15 27 Jan 06:34:53 06:45:26 50° 305° (NW) 06:55:56 29.354- 29.394
CUTE-I 27 Jan 06:40:57 06:46:17 62° 101° (E) 06:51:36 437.470
CUSAT 1 27 Jan 06:48:09 06:52:44 15° 296° (WNW) 06:56:51 437.405
CUBESAT XI-V 27 Jan 07:01:29 07:05:53 46° 261° (W) 07:10:18 437.345
YUBILEINY 27 Jan 07:45:51 07:54:40 86° 85° (E) 08:03:30 435.215
ISS 27 Jan 07:47:36 07:49:24 14° 233° (SW) 07:51:05 145.825
STRAND 1 27 Jan 07:49:26 07:53:24 22° 265° (W) 07:57:15 437.568
BRITE-PL 27 Jan 08:00:18 08:03:07 15° 89° (E) 08:06:14 437.365/2234.400
Cubesat XI-IV 27 Jan 08:01:21 08:05:21 21° 291° (WNW) 08:09:10 437.490
HO-68 27 Jan 08:03:45 08:07:27 15° 92° (E) 08:11:37 435.675
GOMX 1 27 Jan 08:09:17 08:10:13 11° 88° (E) 08:11:35 467.674
VERMONT LUNAR 27 Jan 08:18:22 08:21:17 26° 143° (SE) 08:24:16 437.305
CUTE-I 27 Jan 08:23:22 08:25:54 13° 293° (WNW) 08:28:08 437.470
DOVE 4 27 Jan 08:31:22 08:33:28 13° 89° (E) 08:35:51 437.250
SEEDS 27 Jan 08:39:54 08:42:36 17° 94° (E) 08:45:25 437.485
RS-15 27 Jan 08:57:40 09:01:34 12° 333° (NNW) 09:04:50 29.354- 29.394
PHONESAT 2.4 27 Jan 09:03:14 09:06:30 34° 144° (SE) 09:09:49 2401.200-2431.200
COMPASS 1 27 Jan 09:08:56 09:12:40 32° 97° (E) 09:16:26 437.405
CANX-2 27 Jan 09:15:59 09:20:12 70° 100° (E) 09:24:24 2200.000
Oscar 11 27 Jan 09:34:18 09:37:53 26° 96° (E) 09:41:31 145.826/435.025
BRITE-PL 27 Jan 09:36:31 09:42:05 56° 285° (WNW) 09:47:22 437.365/2234.400
AAUSAT CUBESAT 2 27 Jan 09:36:42 09:40:50 67° 100° (E) 09:44:56 437.432
ANTELSAT 27 Jan 09:39:26 09:42:42 20° 71° (ENE) 09:46:09 437.575/2403.000
CUTE 1.7 + AOD 2 27 Jan 09:40:33 09:44:43 61° 283° (WNW) 09:48:51 437.475
GOMX 1 27 Jan 09:43:35 09:48:58 67° 284° (WNW) 09:54:04 467.674
SO-50 27 Jan 09:44:23 09:45:47 12° 109° (ESE) 09:47:31 436.795
DELFI C3 27 Jan 09:45:19 09:48:45 27° 97° (E) 09:52:15 145.870
YUBILEINY 27 Jan 09:46:13 09:50:38 14° 277° (W) 09:54:18 435.215
TIGRISAT 27 Jan 09:48:06 09:51:47 24° 72° (ENE) 09:55:35 435.000
HO-68 27 Jan 09:48:42 09:55:50 73° 287° (WNW) 10:02:57 435.675
POPSAT HIP 1 27 Jan 09:49:03 09:50:37 12° 70° (ENE) 09:52:27 437.405
DUCHIFAT 1 27 Jan 09:52:41 09:54:37 13° 70° (ENE) 09:56:48 145.980
VERMONT LUNAR 27 Jan 09:55:59 09:59:19 43° 336° (NNW) 10:02:40 437.305
CUBEBUG 2 27 Jan 10:00:55 10:05:09 38° 97° (E) 10:09:15 437.445
DOVE 4 27 Jan 10:06:37 10:11:41 53° 285° (WNW) 10:16:27 437.250
UKube-1 27 Jan 10:08:06 10:12:06 36° 99° (E) 10:16:07 .
CINEMA 3 27 Jan 10:10:12 10:15:03 87° 282° (WNW) 10:19:39 145.822/145.860
SEEDS 27 Jan 10:14:54 10:18:29 27° 286° (WNW) 10:21:57 437.485
ZACube-1 27 Jan 10:18:21 10:22:31 41° 98° (E) 10:26:35 437.345
NANOSAT C BR1 27 Jan 10:24:44 10:28:32 34° 74° (ENE) 10:32:26 145.865
DX 1 27 Jan 10:25:55 10:30:18 65° 101° (E) 10:34:39 434.975-435.025
FUNcube-1 27 Jan 10:30:56 10:35:18 60° 100° (E) 10:39:32 145.935
50 SAT 27 Jan 10:36:03 10:39:16 23° 96° (E) 10:42:32 437.505
QB50P2 27 Jan 10:37:24 10:41:31 51° 76° (ENE) 10:45:43 145.880/145.840
ESTCUBE 1 27 Jan 10:38:21 10:39:23 11° 91° (E) 10:40:45 437.505/2401.250
UNISAT 6 27 Jan 10:38:40 10:43:23 86° 255° (WSW) 10:48:08 437.425
HUMSAT D 27 Jan 10:38:51 10:42:45 37° 98° (E) 10:46:37 437.325/437.525
AISAT 27 Jan 10:40:09 10:44:08 31° 97° (E) 10:48:10 437.250
PHONESAT 2.4 27 Jan 10:41:40 10:45:04 37° 338° (NNW) 10:48:28 2401.200-2431.200
UWE-3 27 Jan 10:45:31 10:49:59 71° 283° (WNW) 10:54:18 435.000/436.395/437.385
COMPASS 1 27 Jan 10:45:48 10:48:09 14° 289° (WNW) 10:50:19 437.405
QB50P1 27 Jan 10:47:26 10:51:39 68° 77° (ENE) 10:55:55 145.935-145.965
POLYITAN 1 27 Jan 11:00:38 11:04:54 80° 258° (WSW) 11:09:14 437.675
VELOX 1 27 Jan 11:09:12 11:13:42 71° 102° (ESE) 11:18:10 145.980
Oscar 11 27 Jan 11:10:49 11:13:56 19° 288° (WNW) 11:16:54 145.826/435.025
BUGSAT 1 27 Jan 11:10:58 11:15:02 80° 258° (WSW) 11:19:09 437.445
ANTELSAT 27 Jan 11:15:05 11:19:19 32° 263° (W) 11:23:31 437.575/2403.000
DELFI C3 27 Jan 11:21:16 11:23:50 16° 288° (WNW) 11:26:13 145.870
AIST 1 27 Jan 11:21:29 11:25:00 26° 91° (E) 11:28:37
SO-50 27 Jan 11:21:32 11:25:55 50° 301° (WNW) 11:30:27 436.795
POPSAT HIP 1 27 Jan 11:22:09 11:26:12 42° 261° (W) 11:30:17 437.405
TIGRISAT 27 Jan 11:24:29 11:28:26 26° 264° (W) 11:32:20 435.000
CUBEBUG 1 27 Jan 11:24:31 11:28:41 39° 99° (E) 11:32:50 437.445
DUCHIFAT 1 27 Jan 11:26:14 11:30:12 38° 262° (W) 11:34:10 145.980
VERMONT LUNAR 27 Jan 11:35:39 11:38:01 17° 352° (N) 11:40:22 437.305
CUBEBUG 2 27 Jan 11:38:56 11:41:32 15° 290° (WNW) 11:43:53 437.445
UKube-1 27 Jan 11:45:28 11:48:00 15° 290° (WNW) 11:50:20 .
GONETS M04 27 Jan 11:53:44 11:59:06 18° 69° (ENE) 12:04:59
ZACube-1 27 Jan 11:56:28 11:58:33 13° 291° (WNW) 12:00:23 437.345
NANOSAT C BR1 27 Jan 12:02:10 12:04:34 14° 267° (W) 12:06:46 145.865
TISAT 1 27 Jan 12:03:55 12:07:17 23° 96° (E) 12:10:43 437.305
50 SAT 27 Jan 12:11:24 12:14:16 18° 288° (WNW) 12:17:00 437.505
ESTCUBE 1 27 Jan 12:12:13 12:16:36 49° 285° (WNW) 12:20:58 437.505/2401.250
HUMSAT D 27 Jan 12:16:09 12:18:15 13° 290° (WNW) 12:20:07 437.325/437.525
AISAT 27 Jan 12:17:27 12:20:33 18° 289° (WNW) 12:23:30 437.250
Oscar 19 27 Jan 12:20:30 12:23:44 17° 69° (ENE) 12:27:11 437.125/150
PHONESAT 2.4 27 Jan 12:21:50 12:24:16 17° 354° (N) 12:26:43 2401.200-2431.200
AIST 2 27 Jan 12:24:03 12:26:51 17° 53° (NE) 12:29:45 435.215
BEESAT 2 27 Jan 12:38:28 12:42:36 64° 62° (ENE) 12:46:39 435.950
SPROUT 27 Jan 12:54:23 12:58:44 77° 283° (WNW) 13:03:03 437.525
BEESAT 3 27 Jan 12:54:50 12:58:57 67° 245° (WSW) 13:02:58 437.485
AIST 1 27 Jan 12:59:55 13:02:44 17° 285° (WNW) 13:05:22
CUBEBUG 1 27 Jan 13:02:17 13:04:46 14° 290° (WNW) 13:07:02 437.445
SWISSCUBE 27 Jan 13:05:51 13:08:56 18° 94° (E) 13:12:12 437.505
VERMONT LUNAR 27 Jan 13:14:33 13:16:59 17° 9° (N) 13:19:26 437.305
Gurwin Techsat 1B 27 Jan 13:17:15 13:19:45 14° 68° (ENE) 13:22:33 435.225
BEESAT 27 Jan 13:21:28 13:25:18 24° 96° (E) 13:29:13 436.000
ITUPSAT 1 27 Jan 13:23:57 13:27:51 25° 96° (E) 13:31:51 437.325
RS-15 27 Jan 13:31:09 13:40:13 28° 45° (NE) 13:50:00 29.354- 29.394
TISAT 1 27 Jan 13:39:40 13:43:01 22° 288° (WNW) 13:46:16 437.305
GONETS M04 27 Jan 13:48:12 13:56:51 72° 266° (W) 14:05:28
Oscar 19 27 Jan 13:57:52 14:02:48 43° 261° (W) 14:07:44 437.125/150
PCSat 27 Jan 13:58:38 14:02:51 23° 56° (NE) 14:07:10 145.827
PHONESAT 2.4 27 Jan 14:00:59 14:03:42 20° 11° (NNE) 14:06:27 2401.200-2431.200
AIST 2 27 Jan 14:01:45 14:05:36 33° 247° (WSW) 14:09:19 435.215
ITAMSAT 1 27 Jan 14:09:01 14:14:10 77° 77° (ENE) 14:19:22 435.822/435.867
KKS-1 27 Jan 14:16:38 14:19:25 17° 93° (E) 14:22:23 437.445
AO-7 27 Jan 14:31:26 14:37:09 22° 62° (ENE) 14:43:15 29.400- 29.500
SWISSCUBE 27 Jan 14:42:34 14:46:56 35° 287° (WNW) 14:51:14 437.505
VERMONT LUNAR 27 Jan 14:52:13 14:55:39 48° 25° (NNE) 14:59:04 437.305
Gurwin Techsat 1B 27 Jan 14:54:07 14:59:19 57° 259° (W) 15:04:32 435.225
HORYU 2 27 Jan 14:56:52 15:01:08 44° 74° (ENE) 15:05:26 437.375
BEESAT 27 Jan 14:59:09 15:03:06 25° 288° (WNW) 15:06:57 436.000
ITUPSAT 1 27 Jan 15:01:47 15:05:40 25° 289° (WNW) 15:09:28 437.325
DANDE 27 Jan 15:12:38 15:16:46 18° 65° (ENE) 15:20:27 436.750
M-CUBED/EXP-1 PRIME 27 Jan 15:14:04 15:16:13 16° 100° (E) 15:18:33 437.505
PHONESAT 2.4 27 Jan 15:39:07 15:42:44 62° 27° (NNE) 15:46:22 2401.200-2431.200
PCSat 27 Jan 15:41:24 15:46:23 37° 251° (WSW) 15:51:16 145.827
RS-15 27 Jan 15:42:23 15:53:54 78° 245° (WSW) 16:05:53 29.354- 29.394
AUBIESAT-1 27 Jan 15:48:01 15:51:14 47° 104° (ESE) 15:54:36 437.475
STARS 27 Jan 15:49:59 15:54:20 54° 285° (WNW) 15:58:38 437.465
CUSAT 1 27 Jan 15:51:18 15:57:07 52° 77° (ENE) 16:01:27 437.405
KKS-1 27 Jan 15:52:10 15:56:11 32° 287° (WNW) 16:00:08 437.445
AO-7 27 Jan 16:20:59 16:29:19 70° 256° (WSW) 16:37:40 29.400- 29.500
VERMONT LUNAR 27 Jan 16:30:45 16:33:39 23° 218° (SW) 16:36:30 437.305
JAS-2 27 Jan 16:32:30 16:38:16 68° 76° (ENE) 16:43:33 435.910
HORYU 2 27 Jan 16:36:04 16:38:04 12° 268° (W) 16:39:47 437.375
O/OREOS (USA 219) 27 Jan 16:48:30 16:52:58 90° 134° (SE) 16:57:29 437.305
M-CUBED/EXP-1 PRIME 27 Jan 16:48:54 16:51:12 17° 291° (WNW) 16:53:27 437.505
DANDE 27 Jan 16:54:54 17:00:48 41° 271° (W) 17:05:13 436.750
MOZHAYETS 4 27 Jan 17:16:41 17:21:14 69° 101° (E) 17:25:47
PHONESAT 2.4 27 Jan 17:18:27 17:21:07 19° 219° (SW) 17:23:42 2401.200-2431.200
JUGNU 27 Jan 17:29:14 17:33:16 19° 166° (SSE) 17:37:24 437.505
Cubesat XI-IV 27 Jan 17:37:04 17:41:50 36° 72° (ENE) 17:46:41 437.490
CUSAT 1 27 Jan 17:37:22 17:39:05 11° 279° (W) 17:40:20 437.405
CUTE-I 27 Jan 17:57:10 18:02:20 58° 75° (ENE) 18:07:34 437.470
RS-15 27 Jan 18:00:04 18:05:18 13° 257° (WSW) 18:09:13 29.354- 29.394
SRMSAT 27 Jan 18:07:10 18:09:48 13° 162° (SSE) 18:12:35 437.500
PRISM 27 Jan 18:17:45 18:21:12 26° 97° (E) 18:24:45 437.425
JAS-2 27 Jan 18:22:56 18:23:49 10° 268° (W) 18:24:12 435.910
STRAND 1 27 Jan 18:26:53 18:30:07 17° 93° (E) 18:33:36 437.568
